Regional Weather Roundup
Issued by NWS New Orleans/Baton Rouge, LA

Home | Current Version | Previous Version | Graphics & Text | Print | Product List | Glossary On
Versions: 1 2 3 4 5 6 7 8 9 10 11 12 13 14 15 16 17 18 19 20 21 22 23 24 25 26 27 28 29 30 31 32 33 34 35 36 37 38 39 40 41 42 43 44 45 46 47 48 49 50
526
ASUS44 KLIX 301410
RWRLIX
NEW ORLEANS REGIONAL WEATHER ROUNDUP
NATIONAL WEATHER SERVICE NEW ORLEANS LA
900 AM CDT TUE SEP 30 2014

NOTE: "FAIR" INDICATES FEW OR NO CLOUDS BELOW 12,000 FEET WITH NO
      SIGNIFICANT WEATHER AND/OR OBSTRUCTIONS TO VISIBILITY.
      SKY/WX - SKY CONDITION AND SIGNIFICANT WEATHER.
      TMP - AIR TEMPERATURE.     DP    - DEWPOINT TEMPERATURE.
      RH  - RELATIVE HUMIDITY.   PRES  - PRESSURE.
      HI  - HEAT INDEX.          WCI   - WIND CHILL INDEX.

*  THESE STATIONS ARE NOT NWS OR FAA STATIONS AND ARE NOT UNDER
   NWS QUALITY CONTROL.

LAZ038-040-048-061>063-065>067-069-301500-
SOUTHEAST LOUISIANA

CITY           SKY/WX    TMP DP  RH WIND       PRES   REMARKS
N.O. AUDUBON     N/A     82  75  79 MISG        N/A
N.O. INTL ARPT MOSUNNY   80  72  76 NE8       29.90R
N.O. LAKEFRONT SUNNY     78  73  84 E7        29.91R
N.O. DOWNTOWN*   N/A     79  70  73 NE3       29.91R
SLIDELL        SUNNY     77  71  82 E5        29.90S
BATON ROUGE    SUNNY     77  71  82 CALM      29.91R
BOOTHVILLE     MOSUNNY   80  74  81 NE3       29.89S
BELLE CHASSE   MOSUNNY   78  73  84 E7        29.90R
BOGALUSA*        N/A     77  70  81 CALM      29.93S
GALLIANO*      NOT AVBL
NEW ROADS*       N/A     75  71  88 NE3       29.91S
GONZALES*        N/A     78  76  95 CALM      29.90S
HAMMOND*       SUNNY     79  70  73 E5        29.92S
HOUMA*         MOSUNNY  N/A N/A N/A N7        29.90R
PORT FOURCHON* CLOUDY    79  75  89 NE6       29.93R

$$

MSZ070-080>082-301500-
SOUTHERN MISSISSIPPI

CITY           SKY/WX    TMP DP  RH WIND       PRES   REMARKS
MCCOMB         SUNNY     76  69  79 CALM      29.93R
GULFPORT       SUNNY     77  71  82 E8        29.90S
BILOXI         SUNNY     76  73  92 NE6       29.91S
PASCAGOULA     CLOUDY    74  71  91 NE6       29.92R
STENNIS ARPT*  MOSUNNY   75  70  83 VRB5      29.91S

$$

COASTAL OBSERVATIONS
LAKE AND NEARSHORE STATIONS

STATION/POSITION TIME  TEMP    WIND        PRES    WAVE
                       AIR SEA DIR/SP/G            HT/PER
                 (UTC) (F)     (DEG/KT/KT) (MB)    (FT/S)
PASCAGOULA       1400   75      50/  7/  9 1012.4
WAVELAND YACHT   1400   76      80/  4/  6 1012.1
GRAND ISLE       1400   79 80   60/  5/  9 1012.8
SOUTHWEST PASS   1400   84 85   30/  6/  7 1012.3
NEW CANAL        1400   76 76   70/  8/  9 1012.9
SHELL BEACH      1400   77 74   50/ 10/ 11 1012.3

OFFSHORE STATIONS

STATION/POSITION TIME  TEMP    WIND        PRES    WAVE
                       AIR SEA DIR/SP/G            HT/PER
                 (UTC) (F)     (DEG/KT/KT) (MB)    (FT/S)
64 S DAUPHIN ISL 1307   78 82  130/  6/  8 1012.3    2/ 4

$$




USA.gov is the U.S. government's official web portal to all federal, state and local government web resources and services.